When you browse on this site, cookies collect data to enhance your experience and personalize the content and advertising you see.
Visit our Privacy Policy to learn more. By continuing to use the site, you agree to this use of cookies and data.
  • In Italy
  • List of Countries
  • For 7 days
  • Water Temperature
  • Satellite Maps
  • Weather Map
  • Weather Widgets
  • user-avatar
    Login

    Hourly Weather Abovyan

    Today, 18 June, Tuesday

    Time Temperature Precipitation Wind Pressure Humidity
    00:00 +20°C° 0.6 mm 1 mps 670 mmHg 71%
    01:00 +20°C° 0.1 mm 1 mps 670 mmHg 71%
    02:00 +19°C° 0.1 mm 1 mps 670 mmHg 71%
    03:00 +19°C° 0 mm 1 mps 669 mmHg 71%
    04:00 +20°C° 0 mm 1 mps 670 mmHg 69%
    05:00 +21°C° 0 mm 1 mps 670 mmHg 67%
    06:00 +22°C° 0 mm 1 mps 670 mmHg 65%
    07:00 +23°C° 0 mm 1 mps 670 mmHg 59%
    08:00 +25°C° 0 mm 1 mps 670 mmHg 52%
    09:00 +27°C° 0 mm 2 mps 671 mmHg 46%
    10:00 +28°C° 0 mm 2 mps 671 mmHg 42%
    11:00 +29°C° 0 mm 2 mps 670 mmHg 37%
    12:00 +31°C° 0 mm 2 mps 670 mmHg 32%
    13:00 +31°C° 0 mm 2 mps 670 mmHg 32%
    14:00 +31°C° 0 mm 2 mps 670 mmHg 31%
    15:00 +31°C° 0 mm 2 mps 670 mmHg 28%
    16:00 +31°C° 0.1 mm 2 mps 670 mmHg 31%
    17:00 +30°C° 0.1 mm 1 mps 670 mmHg 34%
    18:00 +30°C° 0.1 mm 1 mps 670 mmHg 36%
    19:00 +27°C° 0.2 mm 2 mps 670 mmHg 41%
    20:00 +25°C° 0.2 mm 2 mps 670 mmHg 46%
    21:00 +22°C° 0.2 mm 3 mps 670 mmHg 51%
    22:00 +21°C° 0.4 mm 2 mps 670 mmHg 55%
    23:00 +20°C° 0.4 mm 2 mps 669 mmHg 60%

    Tomorrow, 19 June, Wednesday

    Time Temperature Precipitation Wind Pressure Humidity
    00:00 +19°C° 0.4 mm 2 mps 669 mmHg 64%
    01:00 +19°C° 0.3 mm 2 mps 669 mmHg 65%
    02:00 +20°C° 0.3 mm 1 mps 669 mmHg 67%
    03:00 +19°C° 0.3 mm 1 mps 669 mmHg 68%
    04:00 +20°C° 0.1 mm 1 mps 669 mmHg 66%
    05:00 +21°C° 0.1 mm 1 mps 669 mmHg 65%
    06:00 +22°C° 0.1 mm 1 mps 670 mmHg 63%
    07:00 +23°C° 0.2 mm 1 mps 670 mmHg 59%
    08:00 +24°C° 0.2 mm 1 mps 670 mmHg 55%
    09:00 +26°C° 0.2 mm 1 mps 670 mmHg 50%
    10:00 +27°C° 0.5 mm 1 mps 670 mmHg 47%
    11:00 +28°C° 0.5 mm 1 mps 670 mmHg 43%
    12:00 +29°C° 0.5 mm 1 mps 670 mmHg 40%
    13:00 +29°C° 0.3 mm 2 mps 670 mmHg 40%
    14:00 +29°C° 0.3 mm 3 mps 670 mmHg 39%
    15:00 +30°C° 0.3 mm 3 mps 670 mmHg 39%
    16:00 +29°C° 0.2 mm 3 mps 670 mmHg 41%
    17:00 +29°C° 0.2 mm 3 mps 670 mmHg 43%
    18:00 +28°C° 0.2 mm 2 mps 670 mmHg 44%
    19:00 +26°C° 0.2 mm 2 mps 670 mmHg 50%
    20:00 +24°C° 0.2 mm 2 mps 670 mmHg 56%
    21:00 +21°C° 0.2 mm 2 mps 670 mmHg 62%
    22:00 +20°C° 0 mm 2 mps 670 mmHg 62%
    23:00 +20°C° 0 mm 2 mps 670 mmHg 62%

    Day after tomorrow, 20 June, Thursday

    Time Temperature Precipitation Wind Pressure Humidity
    00:00 +21°C° 0 mm 1 mps 670 mmHg 61%
    01:00 +20°C° 0 mm 1 mps 669 mmHg 63%
    02:00 +20°C° 0 mm 1 mps 669 mmHg 64%
    03:00 +20°C° 0 mm 1 mps 669 mmHg 65%
    04:00 +20°C° 0 mm 1 mps 669 mmHg 64%
    05:00 +21°C° 0 mm 1 mps 669 mmHg 63%
    06:00 +22°C° 0 mm 1 mps 670 mmHg 62%
    07:00 +23°C° 0 mm 1 mps 670 mmHg 57%
    08:00 +25°C° 0 mm 1 mps 670 mmHg 52%
    09:00 +27°C° 0 mm 1 mps 670 mmHg 46%
    10:00 +28°C° 0.2 mm 2 mps 670 mmHg 43%
    11:00 +29°C° 0.2 mm 2 mps 670 mmHg 40%
    12:00 +30°C° 0.2 mm 3 mps 670 mmHg 37%
    13:00 +31°C° 0.1 mm 3 mps 670 mmHg 34%
    14:00 +31°C° 0.1 mm 3 mps 669 mmHg 32%
    15:00 +33°C° 0.1 mm 3 mps 669 mmHg 29%
    16:00 +31°C° 0.1 mm 3 mps 669 mmHg 32%
    17:00 +31°C° 0.1 mm 3 mps 669 mmHg 35%
    18:00 +30°C° 0.1 mm 3 mps 669 mmHg 37%
    19:00 +28°C° 0.1 mm 3 mps 669 mmHg 43%
    20:00 +26°C° 0.1 mm 3 mps 669 mmHg 49%
    21:00 +22°C° 0.1 mm 3 mps 669 mmHg 54%
    22:00 +21°C° 0.5 mm 3 mps 669 mmHg 59%
    23:00 +21°C° 0.5 mm 2 mps 668 mmHg 63%

    21 June, Friday

    Time Temperature Precipitation Wind Pressure Humidity
    00:00 +21°C° 0.5 mm 1 mps 668 mmHg 67%
    01:00 +20°C° 0.8 mm 1 mps 668 mmHg 69%
    02:00 +20°C° 0.8 mm 1 mps 668 mmHg 71%
    03:00 +20°C° 0.8 mm 1 mps 668 mmHg 73%
    04:00 +20°C° 0.8 mm 1 mps 668 mmHg 73%
    05:00 +21°C° 0.8 mm 1 mps 668 mmHg 72%
    06:00 +21°C° 0.8 mm 1 mps 668 mmHg 71%
    07:00 +23°C° 0.2 mm 1 mps 669 mmHg 65%
    08:00 +24°C° 0.2 mm 1 mps 669 mmHg 59%
    09:00 +26°C° 0.2 mm 1 mps 669 mmHg 53%
    10:00 +27°C° 0.4 mm 1 mps 669 mmHg 49%
    11:00 +28°C° 0.4 mm 2 mps 669 mmHg 45%
    12:00 +30°C° 0.4 mm 2 mps 669 mmHg 40%
    13:00 +30°C° 0.4 mm 2 mps 669 mmHg 39%
    14:00 +31°C° 0.4 mm 2 mps 669 mmHg 38%
    15:00 +31°C° 0.4 mm 2 mps 669 mmHg 37%
    16:00 +30°C° 0.4 mm 2 mps 669 mmHg 41%
    17:00 +29°C° 0.4 mm 1 mps 669 mmHg 45%
    18:00 +28°C° 0.4 mm 1 mps 670 mmHg 50%
    19:00 +26°C° 0.6 mm 1 mps 670 mmHg 55%
    20:00 +24°C° 0.6 mm 2 mps 670 mmHg 60%
    21:00 +21°C° 0.6 mm 2 mps 670 mmHg 66%
    22:00 +22°C° 0.1 mm 1 mps 670 mmHg 67%
    23:00 +21°C° 0.1 mm 1 mps 670 mmHg 68%

    22 June, Saturday

    Time Temperature Precipitation Wind Pressure Humidity
    00:00 +21°C° 0.1 mm 1 mps 670 mmHg 69%
    01:00 +20°C° 0 mm 1 mps 670 mmHg 69%
    02:00 +20°C° 0 mm 1 mps 669 mmHg 69%
    03:00 +19°C° 0 mm 1 mps 669 mmHg 69%
    04:00 +20°C° 0 mm 1 mps 670 mmHg 68%
    05:00 +21°C° 0 mm 1 mps 670 mmHg 66%
    06:00 +22°C° 0 mm 1 mps 670 mmHg 65%
    07:00 +23°C° 0 mm 1 mps 671 mmHg 60%
    08:00 +25°C° 0 mm 1 mps 671 mmHg 54%
    09:00 +27°C° 0 mm 1 mps 671 mmHg 49%
    10:00 +28°C° 0.1 mm 2 mps 671 mmHg 46%
    11:00 +29°C° 0.1 mm 2 mps 671 mmHg 43%
    12:00 +30°C° 0.1 mm 2 mps 671 mmHg 40%
    13:00 +31°C° 0.1 mm 2 mps 671 mmHg 38%
    14:00 +31°C° 0.1 mm 2 mps 671 mmHg 36%
    15:00 +32°C° 0.1 mm 2 mps 671 mmHg 35%
    16:00 +32°C° 0.1 mm 2 mps 671 mmHg 37%
    17:00 +31°C° 0.1 mm 2 mps 671 mmHg 38%
    18:00 +31°C° 0.1 mm 2 mps 671 mmHg 40%
    19:00 +29°C° 0.1 mm 2 mps 671 mmHg 44%
    20:00 +27°C° 0.1 mm 3 mps 671 mmHg 48%
    21:00 +25°C° 0.1 mm 3 mps 671 mmHg 52%
    22:00 +24°C° 0.1 mm 3 mps 671 mmHg 55%
    23:00 +23°C° 0.1 mm 2 mps 671 mmHg 58%

    23 June, Sunday

    Time Temperature Precipitation Wind Pressure Humidity
    00:00 +21°C° 0.1 mm 2 mps 671 mmHg 60%
    01:00 +21°C° 0.1 mm 2 mps 671 mmHg 62%
    02:00 +21°C° 0.1 mm 2 mps 671 mmHg 64%
    03:00 +20°C° 0.1 mm 2 mps 671 mmHg 65%
    04:00 +22°C° 0.1 mm 1 mps 671 mmHg 64%
    05:00 +23°C° 0.1 mm 1 mps 671 mmHg 63%
    06:00 +23°C° 0.1 mm 1 mps 672 mmHg 63%
    07:00 +25°C° 0.1 mm 1 mps 672 mmHg 57%
    08:00 +27°C° 0.1 mm 1 mps 672 mmHg 52%
    09:00 +28°C° 0.1 mm 1 mps 672 mmHg 47%
    10:00 +30°C° 0.1 mm 1 mps 672 mmHg 43%
    11:00 +31°C° 0.1 mm 1 mps 672 mmHg 40%
    12:00 +32°C° 0.1 mm 2 mps 672 mmHg 37%
    13:00 +34°C° 0.1 mm 2 mps 672 mmHg 34%
    14:00 +34°C° 0.1 mm 2 mps 672 mmHg 32%
    15:00 +35°C° 0.1 mm 2 mps 672 mmHg 30%
    16:00 +34°C° 0.1 mm 2 mps 672 mmHg 33%
    17:00 +34°C° 0.1 mm 2 mps 672 mmHg 36%
    18:00 +32°C° 0.1 mm 2 mps 671 mmHg 39%
    19:00 +30°C° 0.1 mm 2 mps 672 mmHg 44%
    20:00 +28°C° 0.1 mm 3 mps 672 mmHg 48%
    21:00 +26°C° 0.1 mm 3 mps 672 mmHg 52%
    22:00 +25°C° 0.2 mm 2 mps 672 mmHg 56%
    23:00 +24°C° 0.2 mm 2 mps 672 mmHg 59%
    Show more